www.pogodaiklimat.ru

Погода и климат >> Архив погоды >> Австралия >> Западная Австралия >> Параберду


ПОГОДА в Параберду

  • Прогноз погоды в Параберду
  • Монитор погоды в Параберду

АРХИВ ПОГОДЫ в Параберду

Время (UTC), дата Ветер
(напр.,м/с)
 
Видим.   Явления Облачность Т
(С)
Тd
(С)
f
(%)
Тe
(С)
Тes
(С)
Комфортность P
(гПа)
Po
(гПа)
Тmin
(С)
Tmax
(С)
R
(мм)
R24
(мм)
S
(см)
22 13.04 штиль 0 н/о н/о +23.2 +18.5 75 +29 +29 душно 1011.2 963.9
00 14.04 ЮВ 3 н/о н/о +27.0 +19.1 62 +32 +32 очень
душно
1011.3 964.0
01 14.04 СВ 3 н/о н/о +28.3 +18.4 55 +33 +33 очень
душно
1011.3 964.0 +22.7
03 14.04 С 8 н/о н/о +31.7 +15.2 37 +34 +34 душно 1010.8 963.6
04 14.04 С 8 н/о н/о +32.4 +15.4 36 +35 +35 душно 1009.9 962.7
06 14.04 СЗ 9 н/о н/о +33.8 +14.8 32 +35 +35 очень
жарко
1007.5 960.4
07 14.04 СЗ 10 н/о н/о +33.3 +14.8 33 +35 +35 душно 1007.5 960.4
09 14.04 С 7 н/о н/о +32.6 +15.1 35 +35 +35 душно 1007.9 960.8
10 14.04 ЮЗ 7 3000 м слаб. ливневой дождь со снегом {туман} 10/10 600 м
[]
+24.0 +24.0 100 +33 +33 очень
душно
1010.6 963.4
12 14.04 В 4 н/о н/о +23.8 +23.8 100 +32 +32 очень
душно
1010.5 963.3
13 14.04 Ю 3 н/о {туман} 10/10 1500 м
[]
+24.4 +24.2 99 +34 +34 очень
душно
1010.9 963.7 +35.0
15 14.04 Ю 1 н/о н/о +23.4 +23.4 100 +33 +33 очень
душно
1010.8 963.6
16 14.04 Ю 2 н/о в посл. час дождь со снегом {туман} 10/0
[]
+23.7 +23.7 100 +32 +32 очень
душно
1010.4 963.2
18 14.04 штиль 0 н/о н/о +23.6 +23.6 100 +32 +32 очень
душно
1009.7 962.5
19 14.04 штиль 0 н/о {туман} н/о +23.5 +23.5 100 +32 +32 очень
душно
1009.4 962.2
21 14.04 Ю 2 н/о н/о +23.6 +23.6 100 +32 +32 очень
душно
1010.0 962.8
22 14.04 ЮЗ 3 н/о в посл. час дождь {туман} 10/10 100 м
[]
+22.9 +22.9 100 +32 +32 очень
душно
1010.4 963.2
00 15.04 ЮЗ 3 н/о н/о +23.3 +23.3 100 +33 +33 очень
душно
1011.5 964.2
01 15.04 Ю 4 н/о {туман} 10/10 200 м
[]
+24.1 +23.9 99 +33 +33 очень
душно
1011.8 964.5 +21.6
03 15.04 ЮЗ 4 н/о н/о +25.6 +23.7 89 +35 +35 очень
душно
1011.6 964.3
04 15.04 З 3 н/о 10/10 300 м
[]
+27.2 +21.9 73 +35 +35 очень
душно
1010.9 963.7
06 15.04 ЮЗ 4 н/о н/о +29.6 +20.5 58 +36 +36 очень
душно
1009.2 962.0
07 15.04 ЮЗ 5 н/о 9/9 1000 м
[]
+29.7 +20.5 58 +37 +37 очень
душно
1009.2 962.0
09 15.04 З 6 н/о н/о +29.9 +19.9 55 +36 +36 очень
душно
1009.2 962.0
10 15.04 З 5 н/о н/о +28.5 +19.7 59 +34 +34 очень
душно
1009.9 962.7
12 15.04 ЮЗ 3 н/о н/о +26.6 +20.7 70 +33 +33 очень
душно
1011.4 964.1
13 15.04 Ю 2 н/о н/о +25.4 +22.9 86 +34 +34 очень
душно
1011.9 964.6 +30.9
15 15.04 штиль 0 н/о н/о +24.5 +24.2 98 +34 +34 очень
душно
1011.9 964.6
16 15.04 З 2 н/о н/о +24.5 +24.2 98 +34 +34 очень
душно
1011.7 964.4
18 15.04 З 1 н/о н/о +23.3 +23.0 98 +33 +33 очень
душно
1011.4 964.1
19 15.04 СЗ 2 н/о н/о +22.7 +22.4 98 +31 +31 очень
душно
1011.6 964.3
21 15.04 Ю 4 н/о н/о +22.4 +20.3 88 +29 +29 очень
душно
1012.1 964.8
22 15.04 Ю 2 н/о 5/5 600 м
[]
+21.9 +20.9 94 +28 +28 душно 1012.7 965.4
00 16.04 штиль 0 н/о н/о +24.1 +19.6 76 +29 +29 душно 1013.7 966.3
01 16.04 ЮВ 1 н/о н/о +25.6 +19.0 67 +31 +31 очень
душно
1014.0 966.6 +21.5
03 16.04 Ю 3 н/о н/о +28.2 +18.9 57 +33 +33 очень
душно
1013.4 966.0
04 16.04 ЮЗ 4 н/о 3/3 1000 м
[]
+29.1 +17.0 48 +33 +41 очень
душно
1012.6 965.3
06 16.04 З 4 н/о н/о +31.2 +15.6 39 +34 +34 душно 1011.2 963.9
07 16.04 ЮЗ 3 н/о н/о +31.5 +15.9 39 +34 +34 душно 1010.8 963.6
09 16.04 З 5 н/о н/о +30.8 +14.8 38 +33 +33 душно 1011.2 963.9
10 16.04 ЮЗ 5 н/о н/о +29.5 +14.9 41 +32 +32 душно 1011.7 964.4
12 16.04 ЮЗ 3 н/о н/о +28.2 +14.1 42 +30 +30 жарко 1013.0 965.7
13 16.04 Ю 4 н/о н/о +27.2 +12.8 41 +29 +29 жарко 1013.5 966.1 +32.5
15 16.04 Ю 3 н/о н/о +25.3 +12.9 46 +27 +27 жарко 1013.4 966.0
16 16.04 ЮВ 2 н/о н/о +24.4 +13.0 49 +26 +26 жарко 1013.0 965.7
18 16.04 В 2 н/о н/о +22.0 +14.9 64 +25 +25 комфорт 1012.9 965.6
19 16.04 В 3 н/о н/о +21.9 +13.3 58 +25 +25 комфорт 1012.8 965.5
21 16.04 ЮВ 3 н/о н/о +21.9 +11.6 52 +24 +24 комфорт 1013.8 966.4
22 16.04 В 3 н/о н/о +22.0 +11.4 51 +24 +24 комфорт 1014.1 966.7
00 17.04 В 5 н/о н/о +24.9 +11.1 42 +26 +26 жарко 1015.2 967.8
01 17.04 В 5 н/о н/о +27.1 +11.2 37 +28 +28 жарко 1015.6 968.1 +19.4
03 17.04 В 3 н/о н/о +30.7 +11.1 30 +31 +31 жарко 1014.9 967.5
04 17.04 СВ 3 н/о н/о +32.2 +11.9 29 +32 +32 жарко 1014.0 966.6
06 17.04 Ю 3 н/о н/о +33.2 +13.3 30 +34 +34 очень
жарко
1011.8 964.5
07 17.04 З 4 н/о н/о +34.4 +12.7 27 +35 +35 очень
жарко
1011.2 963.9
09 17.04 Ю 4 н/о н/о +33.5 +12.5 28 +34 +34 очень
жарко
1011.3 964.0
10 17.04 Ю 6 н/о н/о +32.1 +11.3 28 +32 +32 жарко 1011.7 964.4
12 17.04 ЮВ 3 н/о н/о +30.4 +11.4 31 +31 +31 жарко 1013.4 966.0
13 17.04 В 3 н/о 6/0
[]
+29.7 +14.7 40 +32 +32 душно 1014.0 966.6 +35.4
15 17.04 СВ 3 н/о н/о +27.6 +15.9 49 +31 +31 душно 1013.0 965.7
16 17.04 штиль 0 н/о н/о +26.4 +16.6 55 +30 +30 душно 1012.5 965.2
18 17.04 СВ 2 н/о н/о +24.0 +17.3 66 +28 +28 душно 1012.2 964.9
19 17.04 СВ 2 н/о н/о +24.4 +17.1 64 +28 +28 душно 1012.1 964.8
21 17.04 СВ 3 н/о н/о +23.6 +17.6 69 +28 +28 душно 1012.1 964.8
22 17.04 СВ 2 н/о н/о +23.4 +18.1 72 +29 +29 душно 1012.7 965.4
00 18.04 штиль 0 н/о н/о +27.1 +15.5 49 +30 +30 душно 1013.5 966.1
01 18.04 С 2 н/о н/о +29.5 +14.1 39 +31 +31 жарко 1013.5 966.1 +21.7
03 18.04 З 3 н/о н/о +32.3 +13.0 31 +33 +33 жарко 1012.5 965.2
04 18.04 З 3 н/о н/о +34.0 +12.9 28 +34 +34 очень
жарко
1011.3 964.0
06 18.04 З 6 н/о н/о +35.8 +12.7 25 +36 +36 очень
жарко
1009.4 962.2
07 18.04 СЗ 6 н/о н/о +36.1 +11.7 23 +36 +36 очень
жарко
1008.9 961.8
09 18.04 СЗ 7 н/о н/о +35.2 +10.3 22 +34 +34 очень
жарко
1008.8 961.7
10 18.04 З 5 н/о н/о +33.8 +11.0 25 +33 +33 жарко 1009.3 962.1
12 18.04 З 3 н/о н/о +31.6 +11.9 30 +32 +32 жарко 1010.9 963.7
13 18.04 З 5 н/о н/о +31.2 +11.1 29 +31 +31 жарко 1011.8 964.5 +37.5
15 18.04 З 5 н/о н/о +29.7 +10.3 30 +30 +30 жарко 1011.9 964.6
16 18.04 З 4 н/о н/о +28.4 +11.5 35 +29 +29 жарко 1011.9 964.6
18 18.04 З 3 н/о н/о +25.6 +13.5 47 +28 +28 жарко 1012.1 964.8
19 18.04 З 4 н/о 9/0
[]
+25.3 +13.8 49 +28 +28 жарко 1011.6 964.3
21 18.04 З 4 н/о н/о +23.4 +13.3 53 +27 +27 душно 1012.3 965.0
22 18.04 ЮЗ 3 н/о 4/0
[]
+22.1 +14.0 60 +25 +25 комфорт 1012.6 965.3
00 19.04 ЮЗ 4 н/о н/о +22.7 +14.5 60 +26 +26 жарко 1013.9 966.5
01 19.04 Ю 4 н/о н/о +23.0 +14.0 57 +26 +26 жарко 1014.4 967.0 +21.5
03 19.04 Ю 5 н/о н/о +25.1 +13.9 50 +27 +27 жарко 1013.6 966.2
04 19.04 Ю 5 н/о н/о +26.1 +13.2 45 +28 +28 жарко 1012.7 965.4
06 19.04 ЮЗ 4 н/о н/о +28.6 +12.1 36 +30 +30 жарко 1010.8 963.6
07 19.04 Ю 4 н/о н/о +28.3 +11.4 35 +29 +29 жарко 1010.5 963.3
09 19.04 Ю 5 н/о н/о +27.1 +10.8 36 +28 +28 жарко 1011.0 963.8
10 19.04 Ю 5 н/о 1/0
[]
+26.1 +8.6 33 +26 +26 жарко 1011.9 964.6
12 19.04 Ю 5 н/о н/о +25.0 +7.6 33 +25 +25 комфорт 1013.4 966.0
13 19.04 Ю 5 н/о 3/0
[]
+24.4 +8.4 36 +25 +25 комфорт 1014.0 966.6 +31.9
15 19.04 Ю 7 н/о н/о +22.1 +9.3 44 +24 +24 комфорт 1014.6 967.2
16 19.04 Ю 5 н/о 3/0
[]
+21.2 +8.5 44 +22 +22 комфорт 1014.6 967.2
18 19.04 Ю 4 н/о н/о +19.7 +7.8 46 +21 +21 комфорт 1014.5 967.1
19 19.04 ЮВ 6 н/о н/о +19.3 +7.7 47 +20 +20 1014.6 967.2
21 19.04 ЮВ 5 н/о н/о +17.9 +7.6 51 +18 +18 1015.0 967.6
22 19.04 ЮВ 5 н/о н/о +17.2 +7.0 51 +17 +17 1015.7 968.2
00 20.04 ЮВ 7 н/о н/о +17.0 +5.6 47 +16 +16 1017.6 970.0
01 20.04 ЮВ 7 н/о н/о +17.3 +4.9 44 +16 +16 1017.9 970.3 +16.7
03 20.04 Ю 5 н/о н/о +21.0 +4.1 33 +22 +22 комфорт 1017.0 969.5
04 20.04 ЮВ 4 н/о н/о +22.6 +3.7 29 +23 +23 комфорт 1015.9 968.4
06 20.04 ЮВ 6 н/о н/о +24.8 +2.3 23 +24 +24 комфорт 1014.2 966.8
07 20.04 Ю 6 н/о н/о +25.5 +1.6 21 +24 +24 комфорт 1013.8 966.4
09 20.04 ЮВ 5 н/о н/о +25.0 +1.2 21 +24 +24 комфорт 1013.6 966.2
10 20.04 ЮВ 4 н/о н/о +24.0 +1.0 22 +23 +23 комфорт 1014.3 966.9
12 20.04 ЮВ 4 н/о н/о +22.4 -0.3 22 +22 +22 комфорт 1016.0 968.5
13 20.04 ЮВ 4 н/о н/о +20.7 0.0 25 +21 +21 комфорт 1016.5 969.0 +26.5
15 20.04 ЮВ 8 н/о н/о +20.1 -2.3 22 +19 +19 1016.3 968.8
18 20.04 ЮВ 8 н/о н/о +17.4 -1.3 28 +16 +16 1016.7 969.2
19 20.04 В 8 н/о н/о +16.6 -1.5 29 +15 +15 1016.6 969.1
21 20.04 В 7 н/о н/о +15.5 -1.5 31 +14 +14 1016.9 969.4

 

Местоположение метеостанции Параберду (Западная Австралия, Австралия): широта -23.17 долгота 117.75 высота над уровнем моря 424 м.

В архиве по умолчанию представлена погода в Параберду за последнюю неделю. Архивные данные за месяц целиком и за предыдущие месяцы, начиная с января 2011 года, Вы можете получить, выбрав интересующий диапазон дат из раскрывающегося списка и нажав кнопку "Ввод!".


*Определитесь, кто Вы:
робот инопланетянин человек

Внимание! Время в таблицах - всемирное. Для получения местного времени необходимо прибавить поправку, которая равна 8 ч.

Смотрите также архив погоды в соседних городах и на ближайших метеорологических станциях:

Погода в Ньюмане (Западная Австралия, Австралия) (211 км)
Погода в Роборн аэропорту (Западная Австралия, Австралия) (276 км)
Погода в Марди (Западная Австралия, Австралия) (287 км)
Погода в Каррате (Западная Австралия, Австралия) (291 км)
Погода в Марбл-баре (Западная Австралия, Австралия) (302 км)
Погода в Онслоу (Западная Австралия, Австралия) (318 км)
Погода в Порт-Хедленде Apardoo (Западная Австралия, Австралия) (325 км)
Погода на Острове Тевенард (Западная Австралия, Австралия) (340 км)
Погода в Барроу-Айленд (Западная Австралия, Австралия) (352 км)
Погода на Острове Варанас (Западная Австралия, Австралия) (359 км)

Пояснения к столбцам:

Ветер - указаны скорость ветра в м/с - средняя за 10 мин, порывы в срок и между сроками (в фигурных скобках) и направление, откуда дует ветер: С - северный, СВ - северо-восточный, В - восточный, ЮВ - юго-восточный, Ю - южный, ЮЗ - юго-западный, З - западный, СЗ - северо-западный.
Видимость - горизонтальная дальность видимости в метрах или километрах. При видимости от 1 до 10 км при отсутствии осадков обычно наблюдается дымка, при ухудшении видимости до 1 км и менее - туман. В сухую погоду видимость может ухудшаться дымом, пылью или мглою.
Явления - указаны атмосферные явления, наблюдавшиеся в срок или в последний час перед сроком; фигурными скобками обозначены явления, наблюдавшиеся между сроками (за 1-3 часа до срока); квадратными скобками обозначены град или гололедные отложения с указанием их диаметра в мм.
Облачность - указаны через наклонную черту общая и нижняя облачность в баллах и высота нижней границы облаков в метрах; квадратными скобками обозначены формы облаков: Ci - перистые, Cs - перисто-слоистые, Cc - перисто-кучевые, Ac - высококучевые, As - высокослоистые, Sc - слоисто-кучевые, Ns - слоисто-дождевые, Cu - кучевые, Cb - кучево-дождевые. Подробнее классификацию облаков см. в Атласе облаков (PDF).
T - Температура воздуха - температура, измеренная на высоте 2 м над землей.
Td - Температура точки росы - температура, при понижении до которой содержащийся в воздухе водяной пар достигнет насыщения.
f - Относительная влажность воздуха - влажноcть воздуха, измеренная на высоте 2 м над землей.
Te - Эффективная температура - температура, которую ощущает одетый по сезону человек в тени. Характеристика душности погоды. При расчете учитывается влияние влажности воздуха и скорости ветра на теплоощущения человека.
Tes - Эффективная температура на солнце - температура, которую ощущает человек, с поправкой на солнечный нагрев. Характеристика знойности погоды. Зависит от высоты солнца над горизонтом, облачности и скорости ветра. Ночью, в пасмурную погоду, а также при ветре 12 м/с и более поправка равна нулю.
P - Атмосферное давление - приведенное к уровню моря атмосферное давление.
Po - Атмосферное давление - измеренное на уровне метеостанции атмосферное давление.
Tmin - Минимальная температура - минимум температуры воздуха на высоте 2 м над землей.
Tmax - Максимальная температура - максимум температуры воздуха на высоте 2 м над землей.
R - Количество осадков - Количество выпавших осадков за период времени, мм. При наведении курсора мыши на число - период времени, за который выпало указанное количество осадков.
R24 - Количество осадков - Количество выпавших осадков за 24 часа, мм.
S - Снежный покров - Высота снежного покрова, см. При наведении курсора мыши на число - состояние снежного покрова и степень покрытия местности в баллах.